Location: Bellflower
(33.8817°N, 118.1170°W)
Time: 13:49:08
(UTC+00:00)

ASTRO E2 - Pass Details

Date: 23 November 2020
Orbit: 508 x 515 km, 31.4° (Epoch: 22 January)

Event Time Altitude Azimuth Distance (km) Brightness Sun altitude
Exits shadow 12:37:15 49° 164° (SSE) 657 3.3 -23.7°
Drops below altitude 10° 12:40:59 10° 95° (E) 1,720 6.5 -23.0°
Sets 12:43:15 0° 90° (E) 2,607 7.7 -22.5°
